Retour au catalogue

FENGYUN 1C DEB

ActifPO
NORAD 29793·DEBRIS·🇨🇳 China

Lancé May 10, 1999 depuis Taiyuan Satellite Launch Center

Loading…

Prochains Passages (prochaines 24 heures)

TLE

VieillissantSource: Space-Track

Époque: Sep 9, 2026, 23:15 UTC

1 29793U 99025CK  26252.96918881  .00001149  00000-0  71672-3 0  9993
2 29793  98.3773  54.3763 0139312 292.8385 196.5218 14.01956880999486

Suivez FENGYUN 1C DEB en temps réel avec AllMySat

Download on the App Store